Overview Statistics Trail Chart Weather Telemetry Raw packets
 

This is the latest recevied weather packets stored in our database for station/object HOWARD. If no packets are shown the sender has not sent any weather packets the latest 10 day(s).

<< 37 38 39 40 41 42 43 >>
Time Temp. Humidity Pressure Rain* Wind** Luminosity Snow
1788120357 8.89° C 64% 1016.3 hPa 0 mm - - -
1788120280 8.89° C 64% 1016.3 hPa 0 mm - - -
1788119680 8.33° C 63% 1016.2 hPa 0 mm - - -
1788119080 7.78° C 65% 1016.9 hPa 0 mm - - -
1788118480 7.78° C 66% 1016.9 hPa 0 mm - - -
1788117880 7.78° C 65% 1016.7 hPa 0 mm - - -
1788117280 7.78° C 65% 1016.5 hPa 0 mm - - -
1788116680 7.22° C - 1016.3 hPa 0 mm - - -
1788116080 7.22° C 65% 1016.2 hPa 0 mm - - -
1788115480 7.22° C 65% 1016.2 hPa 0 mm - - -
1788114880 6.11° C 67% 1016 hPa 0 mm - - -
1788114355 6.67° C 65% 1016 hPa 0 mm - - -
1788114280 6.67° C 65% 1016 hPa 0 mm - - -
1788113680 6.67° C 66% 1016 hPa 0 mm - - -
1788113159 6.67° C 64% 1015.7 hPa 0 mm - - -
1788113080 6.67° C 64% 1015.7 hPa 0 mm - - -
1788112480 6.11° C 67% 1015.7 hPa 0 mm - - -
1788111880 5.56° C 67% 1015.7 hPa 0 mm - - -
1788111381 5.56° C 69% 1015.5 hPa 0 mm - - -
1788111281 5.56° C 69% 1015.5 hPa 0 mm - - -
1788110680 5.56° C 69% 1015.4 hPa 0 mm - - -
1788110080 5.56° C 70% 1015.2 hPa 0 mm - - -
1788109520 5° C 69% 1015.1 hPa 0 mm - - -
1788109480 5° C 69% 1015.1 hPa 0 mm - - -
1788108942 4.44° C 70% 1015.2 hPa 0 mm - - -

* Rain latest hour (hover to see other rain measurements)
** Current wind speed in m/s (hover to see current wind gust speed)